Chattanooga, TN

11:05 AM EST on December 15, 2017 (GMT -0500)
Lovell

Weather History for KCHA - October, 2010

Change the Weather History Date:

Thursday, October 14, 2010

  Actual Average Record
Temperature  
Mean Temperature 60 °F 62 °F  
Max Temperature 72 °F 74 °F 87 °F (1954)
Min Temperature 48 °F 50 °F 30 °F (1988)
Degree Days  
Heating Degree Days 5 4  
Month to date heating degree days 34 43  
Since 1 July heating degree days 36 58  
Cooling Degree Days 0 2  
Month to date cooling degree days 30 35  
Year to date cooling degree days 2380 1724  
Growing Degree Days 13 (Base 50)    
Moisture  
Dew Point 41 °F    
Average Humidity 50    
Maximum Humidity 84    
Minimum Humidity 16    
Precipitation  
Precipitation 0.00 in 0.10 in 2.51 in (1909)
Month to date precipitation T 1.50  
Year to date precipitation 30.17 40.80  
Snow  
Snow 0.00 in 0.00 in - ()
Month to date snowfall 0.0 0.0  
Since 1 July snowfall 0.0 0.0  
Since 1 September snowfall 0.0 0.0  
Snow Depth 0.00 in    
Sea Level Pressure  
Sea Level Pressure 30.03 in    
Wind  
Wind Speed 8 mph (North)    
Max Wind Speed 21 mph    
Max Gust Speed 30 mph    
Visibility 10 miles    
Events      
T = Trace of Precipitation, MM = Missing Value Source: NWS Daily Summary

Daily Weather History Graph

Daily Weather History Graph

Search for Another Location

Airport or City:

Trip Planner

Search our weather history database for the weather conditions in past years. The results will help you decide how hot, cold, wet, or windy it might be!

Date:

Astronomy

Oct. 14, 2010 Rise Set
Actual Time 7:45 AM EDT 7:07 PM EDT
Civil Twilight 7:20 AM EDT 7:32 PM EDT
Nautical Twilight 6:51 AM EDT 8:01 PM EDT
Astronomical Twilight 6:21 AM EDT 8:31 PM EDT
Moon 2:36 PM EDT (10/14) No Moon Set
Length of Visible Light 12h 12m
Length of Day
11h 21m
Waxing Crescent, 48% of the Moon is Illuminated
Oct 14
Waxing Crescent
Oct 14
First Quarter
Oct 22
Full
Oct 30
Last Quarter
Nov 6
New

Hourly Weather History & Observations

Time (EDT) Temp. Dew Point Humidity Pressure Visibility Wind Dir Wind Speed Gust Speed Precip Events Conditions
12:53 AM 64.9 °F 57.0 °F 75% 30.00 in 10.0 mi NE 5.8 mph - N/A   Mostly Cloudy
1:53 AM 63.0 °F 57.0 °F 81% 30.00 in 10.0 mi NE 3.5 mph - N/A   Mostly Cloudy
2:53 AM 63.0 °F 57.9 °F 84% 30.00 in 10.0 mi Calm Calm - N/A   Mostly Cloudy
3:53 AM 62.1 °F 57.0 °F 84% 29.99 in 10.0 mi NNW 3.5 mph - N/A   Mostly Cloudy
4:31 AM 62.6 °F 55.4 °F 77% 30.00 in 10.0 mi Calm Calm - N/A   Mostly Cloudy
4:53 AM 63.0 °F 55.9 °F 78% 29.98 in 10.0 mi NE 3.5 mph - N/A   Mostly Cloudy
5:53 AM 63.0 °F 55.9 °F 78% 29.99 in 10.0 mi North 5.8 mph - N/A   Mostly Cloudy
6:00 AM 62.6 °F 55.4 °F 77% 30.01 in 10.0 mi North 3.5 mph - N/A   Scattered Clouds
6:53 AM 62.1 °F 55.0 °F 78% 30.01 in 10.0 mi North 5.8 mph - N/A   Mostly Cloudy
7:53 AM 62.1 °F 55.0 °F 78% 30.02 in 10.0 mi North 5.8 mph - N/A   Mostly Cloudy
8:53 AM 62.1 °F 48.9 °F 62% 30.05 in 10.0 mi NNW 11.5 mph 21.9 mph N/A   Mostly Cloudy
9:23 AM 62.6 °F 42.8 °F 48% 30.07 in 10.0 mi North 15.0 mph 23.0 mph N/A   Mostly Cloudy
9:53 AM 63.0 °F 39.9 °F 43% 30.07 in 10.0 mi North 17.3 mph - N/A   Mostly Cloudy
10:53 AM 64.9 °F 35.1 °F 33% 30.08 in 10.0 mi North 16.1 mph 20.7 mph N/A   Partly Cloudy
11:53 AM 66.0 °F 28.9 °F 25% 30.09 in 10.0 mi NNW 17.3 mph 23.0 mph N/A   Clear
12:53 PM 69.1 °F 26.1 °F 20% 30.07 in 10.0 mi NNW 17.3 mph 26.5 mph N/A   Clear
1:53 PM 70.0 °F 21.0 °F 16% 30.05 in 10.0 mi NNW 17.3 mph 25.3 mph N/A   Clear
2:53 PM 71.1 °F 24.1 °F 17% 30.03 in 10.0 mi NNW 16.1 mph 24.2 mph N/A   Clear
3:53 PM 72.0 °F 25.0 °F 17% 30.02 in 10.0 mi NNW 12.7 mph 23.0 mph N/A   Clear
4:53 PM 71.1 °F 27.0 °F 19% 30.02 in 10.0 mi NNW 12.7 mph 23.0 mph N/A   Clear
5:53 PM 69.1 °F 28.9 °F 22% 30.02 in 10.0 mi NNW 12.7 mph - N/A   Clear
6:53 PM 66.9 °F 28.9 °F 24% 30.02 in 10.0 mi NNW 11.5 mph - N/A   Clear
7:53 PM 61.0 °F 32.0 °F 34% 30.03 in 10.0 mi NNW 4.6 mph - N/A   Clear
8:53 PM 57.0 °F 35.1 °F 44% 30.03 in 10.0 mi NNW 4.6 mph - N/A   Clear
9:53 PM 55.0 °F 37.0 °F 51% 30.03 in 10.0 mi SSW 3.5 mph - N/A   Clear
10:53 PM 54.0 °F 35.1 °F 49% 30.04 in 10.0 mi Calm Calm - N/A   Clear
11:53 PM 52.0 °F 37.9 °F 59% 30.04 in 10.0 mi Calm Calm - N/A   Clear